BSAT-4B

Last updated on Thu Jul 03 2025 00:02:48 GMT+0000 (Coordinated Universal Time)

1 46112U 20056A 25183.62414845 -.00000343 00000+0 00000+0 0 9999 2 46112 0.0450 174.6082 0004334 306.8871 133.9307 1.00272911 17883
UTC large
Height (km)
Speed (km/s)
/
Latitude / Longitude
Inclination (degrees)
Orbital Period (minutes)
Azimuth
Elevation
Range (km)
Doppler Factor

Next 0 passes for location: London (51.5072 / 0.1276)

Sorry there are no passes over London.